contact:dominique.lefevre@mio.osupytheas.fr, maurice.libes@osupytheas.fr, didier.mallarino@osupytheas.fr
Project:EMSO http://www.emso-fr.org/EMSO-France
Depth: 2436.0 m
Title:EMSO Ligure Ouest : Data MII capteur MICROCAT
DateTime_Computer,Latitude,Longitude,Temperature,Conductivity,Pressure,DateTime_Instrument
DateTime_Computer,Latitude,Longitude,degC,S m-1,dbar,DateTime_Instrument
2020-01-26T00:00:13Z,42.805,6.029,13.2974,4.59995,2469.876,2020-1-26T02:00:46Z
2020-01-26T00:03:16Z,42.805,6.029,13.2977,4.59996,2469.914,2020-1-26T02:03:49Z
2020-01-26T00:06:19Z,42.805,6.029,13.2968,4.59976,2469.867,2020-1-26T02:06:53Z
2020-01-26T00:09:22Z,42.805,6.029,13.2976,4.59979,2469.876,2020-1-26T02:09:56Z
2020-01-26T00:12:26Z,42.805,6.029,13.2980,4.59996,2469.89,2020-1-26T02:12:59Z
2020-01-26T00:15:29Z,42.805,6.029,13.2976,4.59988,2469.853,2020-1-26T02:16:02Z
2020-01-26T00:18:32Z,42.805,6.029,13.2970,4.59992,2469.89,2020-1-26T02:19:05Z
2020-01-26T00:21:35Z,42.805,6.029,13.2975,4.59986,2469.83,2020-1-26T02:22:09Z
2020-01-26T00:24:39Z,42.805,6.029,13.2979,4.59999,2469.876,2020-1-26T02:25:12Z
2020-01-26T00:27:42Z,42.805,6.029,13.2979,4.59994,2469.89,2020-1-26T02:28:15Z
2020-01-26T00:30:45Z,42.805,6.029,13.2976,4.59996,2469.89,2020-1-26T02:31:18Z
2020-01-26T00:33:48Z,42.805,6.029,13.2973,4.59993,2469.844,2020-1-26T02:34:22Z
2020-01-26T00:36:51Z,42.805,6.029,13.2981,4.59998,2469.89,2020-1-26T02:37:25Z
2020-01-26T00:39:55Z,42.805,6.029,13.2980,4.60003,2469.853,2020-1-26T02:40:28Z
2020-01-26T00:42:58Z,42.805,6.029,13.2995,4.59994,2469.844,2020-1-26T02:43:31Z
2020-01-26T00:46:01Z,42.805,6.029,13.2977,4.60014,2469.853,2020-1-26T02:46:34Z
2020-01-26T00:49:04Z,42.805,6.029,13.2982,4.60007,2469.853,2020-1-26T02:49:38Z
2020-01-26T00:52:08Z,42.805,6.029,13.2987,4.60004,2469.867,2020-1-26T02:52:41Z
2020-01-26T00:55:11Z,42.805,6.029,13.2982,4.60009,2469.867,2020-1-26T02:55:44Z
2020-01-26T00:58:14Z,42.805,6.029,13.2970,4.59992,2469.83,2020-1-26T02:58:47Z
2020-01-26T01:01:17Z,42.805,6.029,13.2980,4.59999,2469.867,2020-1-26T03:01:50Z
2020-01-26T01:04:20Z,42.805,6.029,13.2978,4.60004,2469.853,2020-1-26T03:04:54Z
2020-01-26T01:07:23Z,42.805,6.029,13.2978,4.60011,2469.83,2020-1-26T03:07:57Z
2020-01-26T01:10:27Z,42.805,6.029,13.2988,4.60001,2469.867,2020-1-26T03:11:00Z
2020-01-26T01:13:30Z,42.805,6.029,13.2986,4.60001,2469.83,2020-1-26T03:14:04Z
2020-01-26T01:16:34Z,42.805,6.029,13.2989,4.60011,2469.83,2020-1-26T03:17:07Z
2020-01-26T01:19:37Z,42.805,6.029,13.2986,4.60011,2469.844,2020-1-26T03:20:10Z
2020-01-26T01:22:40Z,42.805,6.029,13.2993,4.60016,2469.844,2020-1-26T03:23:13Z
2020-01-26T01:25:43Z,42.805,6.029,13.2993,4.60018,2469.844,2020-1-26T03:26:16Z
2020-01-26T01:28:46Z,42.805,6.029,13.2982,4.60006,2469.844,2020-1-26T03:29:20Z
2020-01-26T01:31:49Z,42.805,6.029,13.2982,4.60009,2469.821,2020-1-26T03:32:23Z
2020-01-26T01:34:53Z,42.805,6.029,13.2988,4.60011,2469.806,2020-1-26T03:35:26Z
2020-01-26T01:37:56Z,42.805,6.029,13.2989,4.60011,2469.821,2020-1-26T03:38:29Z
2020-01-26T01:40:59Z,42.805,6.029,13.2980,4.59994,2469.83,2020-1-26T03:41:32Z
2020-01-26T01:44:02Z,42.805,6.029,13.2979,4.60011,2469.806,2020-1-26T03:44:36Z
2020-01-26T01:47:06Z,42.805,6.029,13.2979,4.60005,2469.83,2020-1-26T03:47:39Z
2020-01-26T01:50:09Z,42.805,6.029,13.2994,4.60006,2469.83,2020-1-26T03:50:42Z
2020-01-26T01:53:12Z,42.805,6.029,13.2993,4.59984,2469.83,2020-1-26T03:53:45Z
2020-01-26T01:56:15Z,42.805,6.029,13.2975,4.60010,2469.821,2020-1-26T03:56:49Z
2020-01-26T01:59:18Z,42.805,6.029,13.2983,4.60010,2469.83,2020-1-26T03:59:52Z
2020-01-26T02:02:22Z,42.805,6.029,13.2985,4.60010,2469.821,2020-1-26T04:02:55Z
2020-01-26T02:05:25Z,42.805,6.029,13.2984,4.60021,2469.821,2020-1-26T04:05:58Z
2020-01-26T02:08:28Z,42.805,6.029,13.2996,4.60021,2469.844,2020-1-26T04:09:02Z
2020-01-26T02:11:32Z,42.805,6.029,13.2979,4.60023,2469.844,2020-1-26T04:12:05Z
2020-01-26T02:14:35Z,42.805,6.029,13.2994,4.60014,2469.844,2020-1-26T04:15:08Z
2020-01-26T02:17:38Z,42.805,6.029,13.2988,4.60020,2469.83,2020-1-26T04:18:11Z
2020-01-26T02:20:41Z,42.805,6.029,13.2991,4.59993,2469.83,2020-1-26T04:21:14Z
2020-01-26T02:23:44Z,42.805,6.029,13.2984,4.60021,2469.821,2020-1-26T04:24:18Z
2020-01-26T02:26:47Z,42.805,6.029,13.2989,4.60001,2469.83,2020-1-26T04:27:21Z
2020-01-26T02:29:51Z,42.805,6.029,13.3000,4.60020,2469.844,2020-1-26T04:30:24Z
2020-01-26T02:32:54Z,42.805,6.029,13.2991,4.60009,2469.806,2020-1-26T04:33:27Z
2020-01-26T02:35:57Z,42.805,6.029,13.2990,4.60010,2469.834,2020-1-26T04:36:30Z
2020-01-26T02:39:00Z,42.805,6.029,13.2987,4.60014,2469.821,2020-1-26T04:39:34Z
2020-01-26T02:42:03Z,42.805,6.029,13.2980,4.60026,2469.844,2020-1-26T04:42:37Z
2020-01-26T02:45:07Z,42.805,6.029,13.2977,4.60011,2469.821,2020-1-26T04:45:40Z
2020-01-26T02:48:10Z,42.805,6.029,13.2985,4.60016,2469.867,2020-1-26T04:48:43Z
2020-01-26T02:51:13Z,42.805,6.029,13.2983,4.60003,2469.89,2020-1-26T04:51:46Z
2020-01-26T02:54:16Z,42.805,6.029,13.2992,4.59993,2469.83,2020-1-26T04:54:50Z
2020-01-26T02:57:19Z,42.805,6.029,13.2982,4.60006,2469.844,2020-1-26T04:57:53Z
2020-01-26T03:00:23Z,42.805,6.029,13.3000,4.60015,2469.853,2020-1-26T05:00:56Z
2020-01-26T03:03:26Z,42.805,6.029,13.2996,4.59976,2469.853,2020-1-26T05:03:59Z
2020-01-26T03:06:29Z,42.805,6.029,13.2971,4.59986,2469.867,2020-1-26T05:07:02Z
2020-01-26T03:09:32Z,42.805,6.029,13.2981,4.59999,2469.89,2020-1-26T05:10:05Z
2020-01-26T03:12:35Z,42.805,6.029,13.2970,4.60028,2469.806,2020-1-26T05:13:09Z
2020-01-26T03:15:38Z,42.805,6.029,13.2985,4.60014,2469.853,2020-1-26T05:16:12Z
2020-01-26T03:18:42Z,42.805,6.029,13.2981,4.59989,2469.876,2020-1-26T05:19:15Z
2020-01-26T03:21:45Z,42.805,6.029,13.2984,4.59986,2469.806,2020-1-26T05:22:18Z
2020-01-26T03:24:48Z,42.805,6.029,13.2979,4.59991,2469.867,2020-1-26T05:25:21Z
2020-01-26T03:27:51Z,42.805,6.029,13.2974,4.60002,2469.853,2020-1-26T05:28:25Z
2020-01-26T03:30:55Z,42.805,6.029,13.2988,4.59974,2469.844,2020-1-26T05:31:28Z
2020-01-26T03:33:58Z,42.805,6.029,13.2989,4.59990,2469.853,2020-1-26T05:34:31Z
2020-01-26T03:37:01Z,42.805,6.029,13.2979,4.59985,2469.853,2020-1-26T05:37:34Z
2020-01-26T03:40:04Z,42.805,6.029,13.2985,4.59999,2469.89,2020-1-26T05:40:38Z
2020-01-26T03:43:07Z,42.805,6.029,13.2993,4.59994,2469.83,2020-1-26T05:43:41Z
2020-01-26T03:46:11Z,42.805,6.029,13.2998,4.59986,2469.83,2020-1-26T05:46:44Z
2020-01-26T03:49:14Z,42.805,6.029,13.2983,4.60023,2469.89,2020-1-26T05:49:47Z
2020-01-26T03:52:17Z,42.805,6.029,13.2996,4.59976,2469.83,2020-1-26T05:52:50Z
2020-01-26T03:55:20Z,42.805,6.029,13.2982,4.60009,2469.876,2020-1-26T05:55:54Z
2020-01-26T03:58:23Z,42.805,6.029,13.2976,4.59979,2469.867,2020-1-26T05:58:57Z
2020-01-26T04:01:27Z,42.805,6.029,13.2996,4.59991,2469.923,2020-1-26T06:02:00Z
2020-01-26T04:04:30Z,42.805,6.029,13.2985,4.59985,2469.914,2020-1-26T06:05:03Z
2020-01-26T04:07:33Z,42.805,6.029,13.2982,4.59984,2469.876,2020-1-26T06:08:06Z
2020-01-26T04:10:36Z,42.805,6.029,13.2974,4.59999,2469.89,2020-1-26T06:11:10Z
2020-01-26T04:13:39Z,42.805,6.029,13.2985,4.59979,2469.876,2020-1-26T06:14:13Z
2020-01-26T04:16:43Z,42.805,6.029,13.2977,4.59986,2469.876,2020-1-26T06:17:16Z
2020-01-26T04:19:46Z,42.805,6.029,13.2977,4.59990,2469.914,2020-1-26T06:20:19Z
2020-01-26T04:22:49Z,42.805,6.029,13.2984,4.59994,2469.9,2020-1-26T06:23:22Z
2020-01-26T04:25:52Z,42.805,6.029,13.2979,4.59986,2469.9,2020-1-26T06:26:26Z
2020-01-26T04:28:55Z,42.805,6.029,13.2979,4.59993,2469.914,2020-1-26T06:29:29Z
2020-01-26T04:31:59Z,42.805,6.029,13.2982,4.60016,2469.923,2020-1-26T06:32:32Z
2020-01-26T04:35:02Z,42.805,6.029,13.3004,4.59993,2469.914,2020-1-26T06:35:35Z
2020-01-26T04:38:05Z,42.805,6.029,13.2991,4.59996,2469.9,2020-1-26T06:38:38Z
2020-01-26T04:41:08Z,42.805,6.029,13.2979,4.59989,2469.9,2020-1-26T06:41:41Z
2020-01-26T04:44:11Z,42.805,6.029,13.2990,4.59976,2469.923,2020-1-26T06:44:45Z
2020-01-26T04:47:15Z,42.805,6.029,13.2986,4.60001,2469.914,2020-1-26T06:47:48Z
2020-01-26T04:50:18Z,42.805,6.029,13.2983,4.59981,2469.947,2020-1-26T06:50:51Z
2020-01-26T04:53:21Z,42.805,6.029,13.2979,4.59980,2469.9,2020-1-26T06:53:54Z
2020-01-26T04:56:24Z,42.805,6.029,13.2977,4.59983,2469.914,2020-1-26T06:56:58Z
2020-01-26T04:59:27Z,42.805,6.029,13.2969,4.59993,2469.923,2020-1-26T07:00:01Z
2020-01-26T05:02:31Z,42.805,6.029,13.2987,4.59988,2469.923,2020-1-26T07:03:04Z
2020-01-26T05:05:34Z,42.805,6.029,13.2977,4.59991,2469.937,2020-1-26T07:06:07Z
2020-01-26T05:08:37Z,42.805,6.029,13.2991,4.59978,2469.937,2020-1-26T07:09:10Z
2020-01-26T05:11:40Z,42.805,6.029,13.2986,4.59999,2469.97,2020-1-26T07:12:13Z
2020-01-26T05:14:43Z,42.805,6.029,13.2992,4.59973,2469.947,2020-1-26T07:15:17Z
2020-01-26T05:17:47Z,42.805,6.029,13.2970,4.59989,2469.993,2020-1-26T07:18:20Z
2020-01-26T05:20:50Z,42.805,6.029,13.2983,4.59976,2469.97,2020-1-26T07:21:23Z
2020-01-26T05:23:53Z,42.805,6.029,13.2993,4.60013,2469.984,2020-1-26T07:24:26Z
2020-01-26T05:26:56Z,42.805,6.029,13.2990,4.59991,2469.97,2020-1-26T07:27:29Z
2020-01-26T05:29:59Z,42.805,6.029,13.2987,4.60009,2469.947,2020-1-26T07:30:33Z
2020-01-26T05:33:03Z,42.805,6.029,13.3004,4.60007,2469.97,2020-1-26T07:33:36Z
2020-01-26T05:36:06Z,42.805,6.029,13.2987,4.60001,2469.97,2020-1-26T07:36:39Z
2020-01-26T05:39:09Z,42.805,6.029,13.2983,4.60001,2470.007,2020-1-26T07:39:42Z
2020-01-26T05:42:12Z,42.805,6.029,13.2998,4.60034,2469.993,2020-1-26T07:42:45Z
2020-01-26T05:45:15Z,42.805,6.029,13.3006,4.59992,2469.97,2020-1-26T07:45:49Z
2020-01-26T05:48:19Z,42.805,6.029,13.3000,4.60011,2469.979,2020-1-26T07:48:52Z
2020-01-26T05:51:22Z,42.805,6.029,13.3001,4.60026,2470.007,2020-1-26T07:51:55Z
2020-01-26T05:54:25Z,42.805,6.029,13.2988,4.60024,2470.03,2020-1-26T07:54:58Z
2020-01-26T05:57:28Z,42.805,6.029,13.2996,4.59979,2469.993,2020-1-26T07:58:01Z
2020-01-26T06:00:32Z,42.805,6.029,13.3002,4.59997,2470.017,2020-1-26T08:01:05Z
2020-01-26T06:03:35Z,42.805,6.029,13.2994,4.59996,2469.993,2020-1-26T08:04:08Z
2020-01-26T06:06:38Z,42.805,6.029,13.3000,4.60021,2470.017,2020-1-26T08:07:12Z
2020-01-26T06:09:41Z,42.805,6.029,13.3028,4.60020,2469.993,2020-1-26T08:10:15Z
2020-01-26T06:12:45Z,42.805,6.029,13.3026,4.60035,2469.993,2020-1-26T08:13:18Z
2020-01-26T06:15:48Z,42.805,6.029,13.3010,4.60040,2470.007,2020-1-26T08:16:21Z
2020-01-26T06:18:51Z,42.805,6.029,13.3033,4.60003,2470.017,2020-1-26T08:19:24Z
2020-01-26T06:21:54Z,42.805,6.029,13.3006,4.60057,2470.017,2020-1-26T08:22:28Z
2020-01-26T06:24:57Z,42.805,6.029,13.2982,4.60024,2470.03,2020-1-26T08:25:31Z
2020-01-26T06:28:01Z,42.805,6.029,13.2984,4.60039,2470.04,2020-1-26T08:28:34Z
2020-01-26T06:31:04Z,42.805,6.029,13.3004,4.60046,2470.03,2020-1-26T08:31:37Z
2020-01-26T06:34:07Z,42.805,6.029,13.3024,4.60058,2470.053,2020-1-26T08:34:40Z
2020-01-26T06:37:10Z,42.805,6.029,13.3013,4.60026,2470.077,2020-1-26T08:37:43Z
2020-01-26T06:40:13Z,42.805,6.029,13.2992,4.60031,2470.04,2020-1-26T08:40:47Z
2020-01-26T06:43:16Z,42.805,6.029,13.3031,4.60062,2470.053,2020-1-26T08:43:50Z
2020-01-26T06:46:20Z,42.805,6.029,13.3036,4.60108,2470.077,2020-1-26T08:46:53Z
2020-01-26T06:49:23Z,42.805,6.029,13.3007,4.60062,2470.04,2020-1-26T08:49:56Z
2020-01-26T06:52:26Z,42.805,6.029,13.3020,4.60003,2470.077,2020-1-26T08:52:59Z
2020-01-26T06:55:29Z,42.805,6.029,13.3006,4.60022,2470.077,2020-1-26T08:56:03Z
2020-01-26T06:58:32Z,42.805,6.029,13.3018,4.60033,2470.053,2020-1-26T08:59:06Z
2020-01-26T07:01:36Z,42.805,6.029,13.3016,4.60001,2470.04,2020-1-26T09:02:09Z
2020-01-26T07:04:39Z,42.805,6.029,13.2990,4.60039,2470.063,2020-1-26T09:05:12Z
2020-01-26T07:07:42Z,42.805,6.029,13.2987,4.60033,2470.063,2020-1-26T09:08:15Z
2020-01-26T07:10:45Z,42.805,6.029,13.2993,4.60060,2470.077,2020-1-26T09:11:19Z
2020-01-26T07:13:48Z,42.805,6.029,13.3015,4.60015,2470.1,2020-1-26T09:14:22Z
2020-01-26T07:16:52Z,42.805,6.029,13.3004,4.60049,2470.063,2020-1-26T09:17:25Z
2020-01-26T07:19:55Z,42.805,6.029,13.2990,4.60024,2470.063,2020-1-26T09:20:28Z
2020-01-26T07:22:58Z,42.805,6.029,13.2982,4.60024,2470.063,2020-1-26T09:23:31Z
2020-01-26T07:26:01Z,42.805,6.029,13.3000,4.60032,2470.087,2020-1-26T09:26:35Z
2020-01-26T07:29:04Z,42.805,6.029,13.3011,4.60044,2470.063,2020-1-26T09:29:38Z
2020-01-26T07:32:08Z,42.805,6.029,13.3000,4.60066,2470.04,2020-1-26T09:32:41Z
2020-01-26T07:35:11Z,42.805,6.029,13.3019,4.60045,2470.087,2020-1-26T09:35:44Z
2020-01-26T07:38:14Z,42.805,6.029,13.3015,4.60040,2470.063,2020-1-26T09:38:48Z
2020-01-26T07:41:17Z,42.805,6.029,13.2995,4.60041,2470.087,2020-1-26T09:41:51Z
2020-01-26T07:44:21Z,42.805,6.029,13.3015,4.60033,2470.124,2020-1-26T09:44:54Z
2020-01-26T07:47:24Z,42.805,6.029,13.3014,4.60037,2470.077,2020-1-26T09:47:57Z
2020-01-26T07:50:27Z,42.805,6.029,13.2999,4.60038,2470.087,2020-1-26T09:51:00Z
2020-01-26T07:53:30Z,42.805,6.029,13.2996,4.60043,2470.087,2020-1-26T09:54:04Z
2020-01-26T07:56:33Z,42.805,6.029,13.3028,4.60044,2470.124,2020-1-26T09:57:07Z
2020-01-26T07:59:37Z,42.805,6.029,13.3010,4.60044,2470.063,2020-1-26T10:00:10Z
2020-01-26T08:02:40Z,42.805,6.029,13.3026,4.60046,2470.124,2020-1-26T10:03:13Z
2020-01-26T08:05:43Z,42.805,6.029,13.3006,4.60040,2470.077,2020-1-26T10:06:17Z
2020-01-26T08:08:46Z,42.805,6.029,13.3004,4.60055,2470.124,2020-1-26T10:09:20Z
2020-01-26T08:11:50Z,42.805,6.029,13.3015,4.60041,2470.087,2020-1-26T10:12:23Z
2020-01-26T08:14:53Z,42.805,6.029,13.2998,4.60010,2470.124,2020-1-26T10:15:26Z
2020-01-26T08:17:56Z,42.805,6.029,13.3009,4.60057,2470.11,2020-1-26T10:18:29Z
2020-01-26T08:20:59Z,42.805,6.029,13.3006,4.60002,2470.11,2020-1-26T10:21:32Z
2020-01-26T08:24:02Z,42.805,6.029,13.2991,4.60016,2470.087,2020-1-26T10:24:36Z
2020-01-26T08:27:06Z,42.805,6.029,13.2990,4.60043,2470.087,2020-1-26T10:27:39Z
2020-01-26T08:30:09Z,42.805,6.029,13.2990,4.60022,2470.1,2020-1-26T10:30:42Z
2020-01-26T08:33:12Z,42.805,6.029,13.3008,4.60044,2470.147,2020-1-26T10:33:45Z
2020-01-26T08:36:15Z,42.805,6.029,13.2983,4.60015,2470.124,2020-1-26T10:36:49Z
2020-01-26T08:39:19Z,42.805,6.029,13.2998,4.60037,2470.124,2020-1-26T10:39:52Z
2020-01-26T08:42:22Z,42.805,6.029,13.3004,4.60033,2470.087,2020-1-26T10:42:55Z
2020-01-26T08:45:25Z,42.805,6.029,13.3006,4.60039,2470.11,2020-1-26T10:45:58Z
2020-01-26T08:48:28Z,42.805,6.029,13.3003,4.60033,2470.11,2020-1-26T10:49:02Z
2020-01-26T08:51:31Z,42.805,6.029,13.2988,4.60033,2470.1,2020-1-26T10:52:05Z
2020-01-26T08:54:35Z,42.805,6.029,13.2987,4.60031,2470.133,2020-1-26T10:55:08Z
2020-01-26T08:57:38Z,42.805,6.029,13.3016,4.60032,2470.087,2020-1-26T10:58:11Z
2020-01-26T09:00:41Z,42.805,6.029,13.2981,4.60015,2470.087,2020-1-26T11:01:15Z
2020-01-26T09:03:45Z,42.805,6.029,13.2986,4.60028,2470.087,2020-1-26T11:04:18Z
2020-01-26T09:06:48Z,42.805,6.029,13.3001,4.60036,2470.147,2020-1-26T11:07:21Z
2020-01-26T09:09:51Z,42.805,6.029,13.3001,4.60039,2470.124,2020-1-26T11:10:24Z
2020-01-26T09:12:54Z,42.805,6.029,13.2989,4.60015,2470.087,2020-1-26T11:13:27Z
2020-01-26T09:15:57Z,42.805,6.029,13.2986,4.60024,2470.1,2020-1-26T11:16:31Z
2020-01-26T09:19:01Z,42.805,6.029,13.3000,4.59994,2470.087,2020-1-26T11:19:34Z
2020-01-26T09:22:04Z,42.805,6.029,13.2999,4.60009,2470.11,2020-1-26T11:22:37Z
2020-01-26T09:25:07Z,42.805,6.029,13.3001,4.60015,2470.11,2020-1-26T11:25:40Z
2020-01-26T09:28:10Z,42.805,6.029,13.2990,4.60018,2470.1,2020-1-26T11:28:44Z
2020-01-26T09:31:13Z,42.805,6.029,13.2983,4.60021,2470.087,2020-1-26T11:31:47Z
2020-01-26T09:34:17Z,42.805,6.029,13.2975,4.59991,2470.087,2020-1-26T11:34:50Z
2020-01-26T09:37:20Z,42.805,6.029,13.2986,4.60014,2470.11,2020-1-26T11:37:53Z
2020-01-26T09:40:23Z,42.805,6.029,13.2977,4.60021,2470.124,2020-1-26T11:40:56Z
2020-01-26T09:43:26Z,42.805,6.029,13.3010,4.60025,2470.087,2020-1-26T11:44:00Z
2020-01-26T09:46:29Z,42.805,6.029,13.2981,4.60019,2470.087,2020-1-26T11:47:03Z
2020-01-26T09:49:33Z,42.805,6.029,13.2993,4.60005,2470.1,2020-1-26T11:50:06Z
2020-01-26T09:52:36Z,42.805,6.029,13.2983,4.60014,2470.1,2020-1-26T11:53:09Z
2020-01-26T09:55:39Z,42.805,6.029,13.2971,4.60003,2470.124,2020-1-26T11:56:13Z
2020-01-26T09:58:42Z,42.805,6.029,13.2973,4.59996,2470.077,2020-1-26T11:59:16Z
2020-01-26T10:01:46Z,42.805,6.029,13.2976,4.60016,2470.11,2020-1-26T12:02:19Z
2020-01-26T10:04:49Z,42.805,6.029,13.2998,4.59995,2470.063,2020-1-26T12:05:22Z
2020-01-26T10:07:52Z,42.805,6.029,13.2980,4.60018,2470.063,2020-1-26T12:08:25Z
2020-01-26T10:10:55Z,42.805,6.029,13.2981,4.60014,2470.077,2020-1-26T12:11:29Z
2020-01-26T10:13:58Z,42.805,6.029,13.2983,4.60010,2470.087,2020-1-26T12:14:32Z
2020-01-26T10:17:02Z,42.805,6.029,13.2972,4.59996,2470.1,2020-1-26T12:17:35Z
2020-01-26T10:20:05Z,42.805,6.029,13.2976,4.60011,2470.063,2020-1-26T12:20:38Z
2020-01-26T10:23:08Z,42.805,6.029,13.2979,4.60014,2470.1,2020-1-26T12:23:41Z
2020-01-26T10:26:11Z,42.805,6.029,13.2978,4.59997,2470.04,2020-1-26T12:26:45Z
2020-01-26T10:29:15Z,42.805,6.029,13.2981,4.60001,2470.124,2020-1-26T12:29:48Z
2020-01-26T10:32:18Z,42.805,6.029,13.2983,4.60011,2470.077,2020-1-26T12:32:51Z
2020-01-26T10:35:21Z,42.805,6.029,13.2977,4.60014,2470.063,2020-1-26T12:35:54Z
2020-01-26T10:38:24Z,42.805,6.029,13.2979,4.60000,2470.087,2020-1-26T12:38:57Z
2020-01-26T10:41:27Z,42.805,6.029,13.2983,4.59994,2470.063,2020-1-26T12:42:01Z
2020-01-26T10:44:31Z,42.805,6.029,13.2978,4.59997,2470.063,2020-1-26T12:45:04Z
2020-01-26T10:47:34Z,42.805,6.029,13.2976,4.59990,2470.11,2020-1-26T12:48:07Z
2020-01-26T10:50:37Z,42.805,6.029,13.2982,4.60013,2470.063,2020-1-26T12:51:10Z
2020-01-26T10:53:40Z,42.805,6.029,13.2975,4.59997,2470.063,2020-1-26T12:54:14Z
2020-01-26T10:56:43Z,42.805,6.029,13.2971,4.60014,2470.077,2020-1-26T12:57:17Z
2020-01-26T10:59:47Z,42.805,6.029,13.2980,4.59996,2470.053,2020-1-26T13:00:20Z
2020-01-26T11:02:50Z,42.805,6.029,13.2969,4.59990,2470.063,2020-1-26T13:03:23Z
2020-01-26T11:05:53Z,42.805,6.029,13.2969,4.59984,2470.077,2020-1-26T13:06:27Z
2020-01-26T11:08:56Z,42.805,6.029,13.2976,4.59988,2470.063,2020-1-26T13:09:30Z
2020-01-26T11:12:00Z,42.805,6.029,13.2982,4.59992,2470.053,2020-1-26T13:12:33Z
2020-01-26T11:15:03Z,42.805,6.029,13.2974,4.59995,2470.053,2020-1-26T13:15:36Z
2020-01-26T11:18:06Z,42.805,6.029,13.2972,4.59983,2470.053,2020-1-26T13:18:39Z
2020-01-26T11:21:09Z,42.805,6.029,13.2976,4.59992,2470.063,2020-1-26T13:21:42Z
2020-01-26T11:24:12Z,42.805,6.029,13.2972,4.59994,2470.03,2020-1-26T13:24:46Z
2020-01-26T11:27:16Z,42.805,6.029,13.2973,4.59981,2470.04,2020-1-26T13:27:49Z
2020-01-26T11:30:19Z,42.805,6.029,13.2975,4.60003,2470.04,2020-1-26T13:30:52Z
2020-01-26T11:33:22Z,42.805,6.029,13.2978,4.59993,2470.053,2020-1-26T13:33:55Z
2020-01-26T11:36:25Z,42.805,6.029,13.2980,4.59983,2470.017,2020-1-26T13:36:59Z
2020-01-26T11:39:29Z,42.805,6.029,13.2974,4.59995,2470.017,2020-1-26T13:40:02Z
2020-01-26T11:42:32Z,42.805,6.029,13.2973,4.59986,2470.017,2020-1-26T13:43:05Z
2020-01-26T11:45:35Z,42.805,6.029,13.2972,4.59986,2470.04,2020-1-26T13:46:08Z
2020-01-26T11:48:38Z,42.805,6.029,13.2975,4.59985,2470.007,2020-1-26T13:49:11Z
2020-01-26T11:51:41Z,42.805,6.029,13.2974,4.59992,2470.077,2020-1-26T13:52:15Z
2020-01-26T11:54:44Z,42.805,6.029,13.2975,4.59988,2470.007,2020-1-26T13:55:18Z
2020-01-26T11:57:48Z,42.805,6.029,13.2975,4.59983,2470.017,2020-1-26T13:58:21Z
2020-01-26T12:00:51Z,42.805,6.029,13.2978,4.59991,2470.053,2020-1-26T14:01:24Z
2020-01-26T12:03:54Z,42.805,6.029,13.2976,4.60005,2469.993,2020-1-26T14:04:27Z
2020-01-26T12:06:57Z,42.805,6.029,13.2980,4.59994,2470.007,2020-1-26T14:07:31Z
2020-01-26T12:10:01Z,42.805,6.029,13.2974,4.59999,2469.993,2020-1-26T14:10:34Z
2020-01-26T12:13:04Z,42.805,6.029,13.2974,4.59999,2470.007,2020-1-26T14:13:37Z
2020-01-26T12:16:07Z,42.805,6.029,13.2973,4.59988,2469.97,2020-1-26T14:16:40Z
2020-01-26T12:19:10Z,42.805,6.029,13.2978,4.59991,2470.007,2020-1-26T14:19:44Z
2020-01-26T12:22:13Z,42.805,6.029,13.2972,4.60003,2469.97,2020-1-26T14:22:47Z
2020-01-26T12:25:17Z,42.805,6.029,13.2986,4.59999,2469.947,2020-1-26T14:25:50Z
2020-01-26T12:28:20Z,42.805,6.029,13.2971,4.59998,2469.984,2020-1-26T14:28:53Z
2020-01-26T12:31:23Z,42.805,6.029,13.2974,4.59997,2469.96,2020-1-26T14:31:56Z
2020-01-26T12:34:26Z,42.805,6.029,13.2974,4.59986,2469.96,2020-1-26T14:35:00Z
2020-01-26T12:37:30Z,42.805,6.029,13.2969,4.59980,2469.96,2020-1-26T14:38:03Z
2020-01-26T12:40:33Z,42.805,6.029,13.2976,4.59981,2469.984,2020-1-26T14:41:06Z
2020-01-26T12:43:36Z,42.805,6.029,13.2969,4.59997,2469.97,2020-1-26T14:44:09Z
2020-01-26T12:46:39Z,42.805,6.029,13.2991,4.59994,2469.97,2020-1-26T14:47:12Z
2020-01-26T12:49:42Z,42.805,6.029,13.2974,4.59991,2469.97,2020-1-26T14:50:16Z
2020-01-26T12:52:46Z,42.805,6.029,13.2983,4.60000,2469.937,2020-1-26T14:53:19Z
2020-01-26T12:55:49Z,42.805,6.029,13.2976,4.59990,2469.984,2020-1-26T14:56:22Z
2020-01-26T12:58:52Z,42.805,6.029,13.2967,4.59988,2469.947,2020-1-26T14:59:25Z
2020-01-26T13:01:55Z,42.805,6.029,13.2971,4.59981,2469.97,2020-1-26T15:02:29Z
2020-01-26T13:04:58Z,42.805,6.029,13.2974,4.59984,2469.96,2020-1-26T15:05:32Z
2020-01-26T13:08:02Z,42.805,6.029,13.2976,4.59993,2469.947,2020-1-26T15:08:35Z
2020-01-26T13:11:05Z,42.805,6.029,13.2983,4.59994,2469.923,2020-1-26T15:11:38Z
2020-01-26T13:14:08Z,42.805,6.029,13.2976,4.59982,2469.923,2020-1-26T15:14:41Z
2020-01-26T13:17:11Z,42.805,6.029,13.2980,4.59983,2469.923,2020-1-26T15:17:45Z
2020-01-26T13:20:15Z,42.805,6.029,13.2968,4.59979,2469.914,2020-1-26T15:20:48Z
2020-01-26T13:23:18Z,42.805,6.029,13.2974,4.59992,2469.9,2020-1-26T15:23:51Z
2020-01-26T13:26:21Z,42.805,6.029,13.2983,4.59989,2469.9,2020-1-26T15:26:54Z
2020-01-26T13:29:24Z,42.805,6.029,13.2969,4.59987,2469.993,2020-1-26T15:29:58Z
2020-01-26T13:32:28Z,42.805,6.029,13.2976,4.59989,2469.97,2020-1-26T15:33:01Z
2020-01-26T13:35:31Z,42.805,6.029,13.2974,4.59991,2469.923,2020-1-26T15:36:04Z
2020-01-26T13:38:34Z,42.805,6.029,13.2978,4.59999,2469.9,2020-1-26T15:39:07Z
2020-01-26T13:41:37Z,42.805,6.029,13.2978,4.59995,2469.937,2020-1-26T15:42:11Z
2020-01-26T13:44:40Z,42.805,6.029,13.2974,4.59986,2469.937,2020-1-26T15:45:14Z
2020-01-26T13:47:44Z,42.805,6.029,13.2977,4.59992,2469.937,2020-1-26T15:48:17Z
2020-01-26T13:50:47Z,42.805,6.029,13.2976,4.60015,2469.914,2020-1-26T15:51:20Z
2020-01-26T13:53:50Z,42.805,6.029,13.2972,4.59986,2469.923,2020-1-26T15:54:23Z
2020-01-26T13:56:53Z,42.805,6.029,13.2971,4.59986,2469.9,2020-1-26T15:57:27Z
2020-01-26T13:59:57Z,42.805,6.029,13.2971,4.59984,2469.89,2020-1-26T16:00:30Z
2020-01-26T14:03:00Z,42.805,6.029,13.2983,4.60006,2469.923,2020-1-26T16:03:33Z
2020-01-26T14:06:03Z,42.805,6.029,13.2973,4.59986,2469.914,2020-1-26T16:06:36Z
2020-01-26T14:09:06Z,42.805,6.029,13.2976,4.60003,2469.89,2020-1-26T16:09:40Z
2020-01-26T14:12:09Z,42.805,6.029,13.2982,4.59997,2469.923,2020-1-26T16:12:43Z
2020-01-26T14:15:13Z,42.805,6.029,13.2977,4.59991,2469.914,2020-1-26T16:15:46Z
2020-01-26T14:18:16Z,42.805,6.029,13.2976,4.60001,2469.914,2020-1-26T16:18:49Z
2020-01-26T14:21:19Z,42.805,6.029,13.2977,4.60014,2469.914,2020-1-26T16:21:52Z
2020-01-26T14:24:22Z,42.805,6.029,13.2979,4.59997,2469.89,2020-1-26T16:24:56Z
2020-01-26T14:27:26Z,42.805,6.029,13.2973,4.60001,2469.923,2020-1-26T16:27:59Z
2020-01-26T14:30:29Z,42.805,6.029,13.2972,4.59985,2469.9,2020-1-26T16:31:02Z
2020-01-26T14:33:32Z,42.805,6.029,13.2976,4.59999,2469.876,2020-1-26T16:34:05Z
2020-01-26T14:36:35Z,42.805,6.029,13.2974,4.59988,2469.914,2020-1-26T16:37:09Z
2020-01-26T14:39:39Z,42.805,6.029,13.2972,4.59986,2469.96,2020-1-26T16:40:12Z
2020-01-26T14:42:42Z,42.805,6.029,13.2974,4.59982,2469.89,2020-1-26T16:43:15Z
2020-01-26T14:45:45Z,42.805,6.029,13.2976,4.59981,2469.876,2020-1-26T16:46:18Z
2020-01-26T14:48:48Z,42.805,6.029,13.2975,4.59985,2469.914,2020-1-26T16:49:21Z
2020-01-26T14:51:51Z,42.805,6.029,13.2979,4.59982,2469.853,2020-1-26T16:52:25Z
2020-01-26T14:54:55Z,42.805,6.029,13.2986,4.60001,2469.914,2020-1-26T16:55:28Z
2020-01-26T14:57:58Z,42.805,6.029,13.2983,4.60005,2469.923,2020-1-26T16:58:31Z
2020-01-26T15:01:01Z,42.805,6.029,13.2979,4.60003,2469.89,2020-1-26T17:01:34Z
2020-01-26T15:04:04Z,42.805,6.029,13.2969,4.59990,2469.876,2020-1-26T17:04:38Z
2020-01-26T15:07:08Z,42.805,6.029,13.2989,4.60007,2469.876,2020-1-26T17:07:41Z
2020-01-26T15:10:11Z,42.805,6.029,13.2974,4.59989,2469.89,2020-1-26T17:10:44Z
2020-01-26T15:13:14Z,42.805,6.029,13.2983,4.60008,2469.89,2020-1-26T17:13:47Z